Location: Brunnen
(48.6541°N, 10.9920°E)
Time: 07:06:44
(UTC+00:00)

SL-16 R/B - Pass Details

Date: 01 June 2020
Orbit: 986 x 1006 km, 99.5° (Epoch: 07 July)

Event Time Altitude Azimuth Distance (km) Brightness Sun altitude
Exits shadow 23:19:18 - 119° (ESE) 3,435 5.1 -19.1°
Reaches altitude 10° 23:21:25 10° 110° (ESE) 2,744 4.7 -19.1°
Maximum altitude 23:26:20 26° 56° (ENE) 1,841 4.3 -19.1°
Drops below altitude 10° 23:31:17 10° 3° (N) 2,763 6.1 -19.0°
Sets 23:34:09 0° 352° (N) 3,718 7.0 -19.0°
